Weather History for Montpelier, VT

Change the Weather History Date:

Saturday, May 5, 2012

  Actual Average Record
Temperature  
Mean Temperature 50 °F 50 °F  
Max Temperature 61 °F 62 °F 83 °F (1949)
Min Temperature 38 °F 38 °F 24 °F (1952)
Degree Days  
Heating Degree Days 14    
Cooling Degree Days 0 0  
Month to date cooling degree days 0 0  
Year to date cooling degree days 5 1  
Growing Degree Days 1 (Base 50)    
Moisture  
Dew Point 46 °F    
Average Humidity 70    
Maximum Humidity 100    
Minimum Humidity 39    
Precipitation  
Precipitation 0.00 in 0.11 in 0.59 in (1990)
Month to date precipitation 1.10 0.51  
Year to date precipitation 8.08 10.05  
Sea Level Pressure  
Sea Level Pressure 30.04 in    
Wind  
Wind Speed 5 mph (NNW)    
Max Wind Speed 9 mph    
Max Gust Speed -    
Visibility 7 miles    
Events Fog , Rain    
T = Trace of Precipitation, MM = Missing Value Source: NWS Daily Summary

Daily Weather History Graph

Daily Weather History Graph

Search for Another Location

Airport:

Trip Planner

Search our weather history database for the weather conditions in past years. The results will help you decide how hot, cold, wet, or windy it might be!

Date:

Astronomy

May. 05, 2012 Rise Set
Actual Time 5:35 AM EDT 7:59 PM EDT
Civil Twilight 5:02 AM EDT 8:31 PM EDT
Nautical Twilight 4:22 AM EDT 9:12 PM EDT
Astronomical Twilight 3:37 AM EDT 9:57 PM EDT
Moon 7:49 PM EDT (5/5) 4:56 AM EDT (5/5)
Length of Visible Light 15h 28m
Length of Day
14h 24m
Full, 100% of the Moon is Illuminated
May 5
Full
May 5
Full
May 12
Last Quarter
May 20
New
May 28
First Quarter

Hourly Weather History & Observations

Time (EDT) Temp. Windchill Dew Point Humidity Pressure Visibility Wind Dir Wind Speed Gust Speed Precip Events Conditions
12:07 AM 53.6 °F - 51.8 °F 94% 29.96 in 7.0 mi Calm Calm - N/A   Overcast
12:41 AM 51.8 °F - 51.8 °F 100% 29.96 in 2.5 mi Calm Calm - 0.00 in   Overcast
12:51 AM 52.0 °F - 52.0 °F 100% 29.97 in 4.0 mi Calm Calm - 0.00 in   Overcast
12:57 AM 51.8 °F - 51.8 °F 100% 29.96 in 1.5 mi Calm Calm - N/A   Mostly Cloudy
12:59 AM 50.0 °F - 50.0 °F 100% 29.96 in 1.0 mi SSW 3.5 mph - N/A   Mostly Cloudy
1:03 AM 50.0 °F - 50.0 °F 100% 29.96 in 0.8 mi Calm Calm - N/A   Overcast
1:11 AM 50.0 °F - 50.0 °F 100% 29.96 in 0.5 mi South 3.5 mph - N/A Fog Fog
1:51 AM 52.0 °F - 52.0 °F 100% 29.97 in 1.0 mi Calm Calm - 0.00 in Rain Light Rain
1:56 AM 51.8 °F - 51.8 °F 100% 29.96 in 1.5 mi Calm Calm - 0.00 in Rain Light Rain
2:04 AM 51.8 °F - 51.8 °F 100% 29.96 in 2.5 mi Calm Calm - 0.00 in   Overcast
2:25 AM 51.8 °F - 51.8 °F 100% 29.97 in 3.0 mi Calm Calm - 0.00 in   Overcast
2:29 AM 51.8 °F - 51.8 °F 100% 29.97 in 1.8 mi Calm Calm - 0.00 in   Overcast
2:32 AM 51.8 °F - 51.8 °F 100% 29.97 in 1.0 mi West 3.5 mph - 0.00 in   Mist
2:42 AM 53.6 °F - 53.6 °F 100% 29.97 in 1.0 mi WNW 8.1 mph - 0.00 in   Mist
2:49 AM 53.6 °F - 53.6 °F 100% 29.97 in 0.2 mi NNW 5.8 mph - 0.00 in Fog Fog
2:51 AM 53.1 °F - 53.1 °F 100% 29.98 in 0.2 mi NW 6.9 mph - 0.00 in Fog Fog
3:14 AM 51.8 °F - 51.8 °F 100% 29.98 in 1.2 mi NNW 8.1 mph - N/A   Overcast
3:17 AM 51.8 °F - 51.8 °F 100% 29.98 in 2.0 mi NNW 8.1 mph - N/A   Overcast
3:27 AM 51.8 °F - 51.8 °F 100% 29.98 in 7.0 mi NNW 5.8 mph - N/A   Overcast
3:38 AM 50.0 °F - 50.0 °F 100% 29.98 in 10.0 mi NNW 8.1 mph - N/A   Overcast
3:51 AM 48.9 °F - 48.9 °F 100% 30.00 in 10.0 mi NNW 9.2 mph - N/A   Overcast
4:51 AM 46.9 °F - 46.9 °F 100% 30.03 in 10.0 mi North 5.8 mph - N/A   Overcast
5:31 AM 46.4 °F 42.9 °F 46.4 °F 100% 30.02 in 10.0 mi NW 6.9 mph - N/A   Overcast
5:51 AM 46.0 °F 43.9 °F 46.0 °F 100% 30.04 in 10.0 mi North 4.6 mph - N/A   Overcast
6:51 AM 45.0 °F 42.6 °F 44.1 °F 97% 30.06 in 10.0 mi North 4.6 mph - N/A   Overcast
7:51 AM 45.0 °F 43.5 °F 44.1 °F 97% 30.09 in 10.0 mi North 3.5 mph - N/A   Overcast
8:51 AM 46.0 °F 43.1 °F 44.1 °F 93% 30.10 in 10.0 mi NW 5.8 mph - N/A   Overcast
9:51 AM 46.0 °F 43.1 °F 43.0 °F 89% 30.12 in 10.0 mi NNW 5.8 mph - N/A   Overcast
10:21 AM 46.4 °F 42.9 °F 42.8 °F 87% 30.12 in 10.0 mi NNW 6.9 mph - N/A   Overcast
10:51 AM 48.9 °F - 44.1 °F 83% 30.13 in 10.0 mi Variable 4.6 mph - N/A   Overcast
11:27 AM 50.0 °F - 42.8 °F 76% 30.12 in 10.0 mi NNE 4.6 mph - N/A   Overcast
11:51 AM 52.0 °F - 44.1 °F 74% 30.13 in 10.0 mi Variable 6.9 mph - 0.01 in   Mostly Cloudy
12:14 PM 51.8 °F - 42.8 °F 71% 30.11 in 10.0 mi NE 6.9 mph - N/A   Scattered Clouds
12:51 PM 54.0 °F - 42.1 °F 64% 30.12 in 10.0 mi Variable 6.9 mph - N/A   Clear
1:51 PM 57.9 °F - 37.9 °F 47% 30.10 in 10.0 mi North 9.2 mph - N/A   Clear
2:51 PM 57.9 °F - 37.0 °F 46% 30.10 in 10.0 mi NNW 6.9 mph - N/A   Clear
3:51 PM 60.1 °F - 36.0 °F 41% 30.09 in 10.0 mi Variable 3.5 mph - N/A   Clear
4:51 PM 60.8 °F - 37.4 °F 42% 30.08 in 10.0 mi NE 6.9 mph - N/A   Clear
5:51 PM 60.1 °F - 36.0 °F 41% 30.09 in 10.0 mi NNE 6.9 mph - N/A   Clear
6:51 PM 57.9 °F - 37.9 °F 47% 30.11 in 10.0 mi NNE 8.1 mph - N/A   Clear
8:51 PM 50.0 °F - 34.0 °F 54% 30.15 in 10.0 mi NNE 3.5 mph - N/A   Clear
9:51 PM 42.1 °F - 35.1 °F 76% 30.18 in 10.0 mi Calm Calm - N/A   Clear
10:51 PM 43.0 °F - 35.1 °F 74% 30.18 in 10.0 mi Calm Calm - N/A   Clear
11:51 PM 39.0 °F - 35.1 °F 86% 30.19 in 10.0 mi Calm Calm - N/A   Clear